AirNav   Everest Fuels
 
 1075 users online  

7V2 North Fork Valley Airport
Paonia, Colorado, USA

GOING TO PAONIA?


FAA INFORMATION EFFECTIVE 20 MAY 2021

Location

FAA Identifier: 7V2
Lat/Long: 38-49-52.7000N 107-38-45.1000W
38-49.878333N 107-38.751667W
38.8313056,-107.6458611
(estimated)
Elevation: 5798 ft. / 1767 m (estimated)
Variation: 13E (1985)
From city: 3 miles SW of PAONIA, CO
Time zone: UTC -6 (UTC -7 during Standard Time)
Zip code: 81428

Airport Operations

Airport use: Open to the public
Activation date: 05/1947
Control tower: no
ARTCC: DENVER CENTER
FSS: DENVER FLIGHT SERVICE STATION
NOTAMs facility: DEN (NOTAM-D service available)
Attendance: MON-FRI 0800-1800, ALL SAT-SUN IREG
Pattern altitude: 6598 ft. MSL
Wind indicator: lighted
Segmented circle: no
Lights: ACTVT HIRL RY 05/23 AND PAPI RYS 05 & 23 - CTAF.

Airport Communications

CTAF/UNICOM: 122.7
WX AWOS-3 at AJZ (20 nm W): 134.0 (970-874-3251)

Nearby radio navigation aids

VOR radial/distance  VOR name  Freq  Var
MTJr019/22.8MONTROSE VOR/DME117.1012E
HBUr295/36.4BLUE MESA VOR/DME114.9014E

Airport Services

Fuel available: 100LL
Parking: hangars and tiedowns
Airframe service: MAJOR
Powerplant service: MAJOR
Bottled oxygen: NONE
Bulk oxygen: NONE

Runway Information

Runway 5/23

Dimensions: 4500 x 60 ft. / 1372 x 18 m
Surface: asphalt, in good condition
Weight bearing capacity: 
Single wheel: 21.0
Runway edge lights: high intensity
RUNWAY 5  RUNWAY 23
Latitude: 38-49.738000N38-50.019167N
Longitude: 107-39.189667W107-38.312667W
Elevation: 5783.0 ft.5788.0 ft.
Traffic pattern: leftleft
Runway heading: 055 magnetic, 068 true235 magnetic, 248 true
Markings: basic, in good conditionbasic, in good condition
Visual slope indicator: 2-light PAPI on left2-light PAPI on left

Airport Ownership and Management from official FAA records

Ownership: Publicly-owned
Owner: DELTA COUNTY
38506 BACK RIVER RD
PAONIA, CO 81428
Phone 970-527-3345
DELTA COUNTY WITH TOWN OF PAONIA.
Manager: MIKE CLAWSON
38506 BACK RIVER RD
PAONIA, CO 81428
Phone 970-527-3345
970-260-2138 (CELL)

Airport Operational Statistics

Aircraft based on the field: 23
Single engine airplanes: 17
Multi engine airplanes: 3
Helicopters: 1
Ultralights: 2
    
Aircraft operations: avg 38/week *
50% transient general aviation
50% local general aviation
* for 12-month period ending 31 December 2017

Additional Remarks

A58-23 HAS +10 FT ROAD,+12 FT TREES, AND +10 FT FENCE 90 FT R OF CNTRLN AT THLD.
RY 5/23 HAS -50 FT TO -75 FT TERRAIN DROPOFF ON BOTH SIDES AT VARIOUS LOCATIONS THE ENTIRE-LENGTH OF RY.
24 HOUR SELF SERVE FUEL AVAILABLE.
FOR CD CTC DENVER ARTCC AT 303-651-4257.

Instrument Procedures

There are no published instrument procedures at 7V2.

Some nearby airports with instrument procedures:

KAJZ - Blake Field Airport (20 nm W)
KMTJ - Montrose Regional Airport (23 nm SW)
KGUC - Gunnison-Crested Butte Regional Airport (38 nm SE)
KRIL - Rifle Garfield County Airport (42 nm N)
KASE - Aspen-Pitkin County Airport/Sardy Field (43 nm NE)
 
Loc | Ops | Rwys | IFR | FBO | Links
Com | Nav | Svcs | Stats | Notes

AirBoss

 
Area around 7V2 (North Fork Valley Airport)
 
Road maps at: MapQuest Bing Google
 
Aerial photo
WARNING: Photo may not be current or correct
Aerial photo of 7V2 (North Fork Valley Airport)
Taken early July 2012
looking west.

Do you have a better or more recent aerial photo of North Fork Valley Airport that you would like to share? If so, please send us your photo.

 
Sectional chart

 
Airport distance calculator
Flying to North Fork Valley Airport? Find the distance to fly.

From to 7V2

Sunrise and sunset
Times for 13-Jun-2021
 Local
(UTC-6)
 Zulu
(UTC)
Morning civil twilight05:1411:14
Sunrise05:4611:46
Sunset20:3502:35
Evening civil twilight21:0703:07

Current date and time
Zulu (UTC)  13-Jun-2021 20:10:45
Local (UTC-6)  13-Jun-2021 14:10:45
 
METAR
KAJZ 
20nm W 
131935Z AUTO 08006KT 10SM CLR 37/M17 A3011 RMK AO2 T03701171
KMTJ 
23nm SW 
131853Z AUTO 33009KT 10SM CLR 33/M07 A3018 RMK AO2 SLP123 T03331072
K5SM 
38nm N 
131935Z AUTO 22004KT 10SM 21/M12 A3063 RMK AO2
KGUC 
39nm SE 
131856Z AUTO VRB03KT 10SM CLR 28/M12 A3035 RMK AO2 SLP180 T02781117
TAF
KMTJ 
23nm SW 
131720Z 1318/1418 32006KT P6SM SKC FM131900 24013G23KT P6SM SKC FM140200 16014KT P6SM SKC FM140500 14010KT P6SM SKC
NOTAMs
Click for the latest NOTAMs
NOTAMs are issued by the DoD/FAA and will open in a separate window not controlled by AirNav.

 

 
 

FBO, Fuel Providers, and Aircraft Ground Support

  
 Business Name 
 
 Contact 
 
 Services / Description 
 
Fuel Prices
 
Comments
  
North Fork Aviation, LLC 970-527-3345
970-260-2138
[email]
Airport management, Aviation fuel, Aircraft parking (ramp or tiedown), Hangars, Hangar leasing / sales, Courtesy transportation, Pilots lounge / snooze room, ...

More info about North Fork Aviation, LLC
independent
100LL
FS $4.60 
SS $4.60 
 Updated 11-Jun-2021
 
   3 read write
FS=Full service
SS=Self service
Update Fuel Prices
 

Would you like to see your business listed on this page?

 If your business provides an interesting product or service to pilots, flight crews, aircraft, or users of the North Fork Valley Airport, you should consider listing it here.  To start the listing process, click on the button below
 
Add a business
 

Other Pages about North Fork Valley Airport

www.flycolorado.org/...
 
Update a link
 
Copyright © AirNav, LLC. All rights reserved. Privacy Policy  Contact